YAOGAN-43 02F

Last updated on Fri Oct 04 2024 00:02:03 GMT+0000 (Coordinated Universal Time)

1 60950U 24156F 24277.36536972 .00003641 00000+0 15260-3 0 9991 2 60950 34.9926 148.8617 0005734 269.3443 90.6615 15.22986151 4584
UTC large
Height (km)
Speed (km/s)
/
Latitude / Longitude
Inclination (degrees)
Orbital Period (minutes)
Azimuth
Elevation
Range (km)
Doppler Factor

Next 0 passes for location: London (51.5072 / 0.1276)

Sorry there are no passes over London.